Location: LDNL
(36.4545°S, 141.6685°E)
Time: 18:35:28
(UTC+10:00)

Tiros 1 despin weight - Pass Details

Date: 29 January 2022
Orbit: 592 x 639 km, 48.2° (Epoch: 28 May)

Event Time Altitude Azimuth Distance (km) Brightness Sun altitude
Exits shadow 03:24:39 14° 86° (E) 1,768 ? -30.7°
Drops below altitude 10° 03:25:32 10° 95° (E) 2,000 ? -30.6°
Sets 03:28:20 0° 111° (ESE) 2,903 ? -30.4°
